Dewpoint
55 56 56 56 56 56 56 55 55 54 55 55 54 54 53 51 50 49 47 46 45 45 45 44 43 44 48
54 54 55 55 56 55 54 54 54 53 53 54 54 53 52 51 50 49 47 46 44 43 43 42 42 44 49
53 54 54 53 53 52 52 52 51 51 52 53 53 53 52 51 50 49 47 45 43 42 42 41 42 45 49
54 54 53 50 49 50 49 47 48 48 49 50 51 52 52 50 49 48 46 43 41 41 41 41 42 46 49
53 53 51 47 48 47 47 48 45 46 45 46 47 48 49 49 48 46 44 42 40 40 40 41 43 48 50
52 51 51 49 47 47 45 44 43 43 43 42 44 44 45 46 47 46 45 41 40 40 39 40 44 47 49
48 48 48 49 47 46 44 43 42 42 42 40 42 41 43 44 45 45 43 40 39 39 39 40 45 47 50
45 45 45 46 46 46 45 42 40 41 42 38 38 39 40 40 43 42 40 39 38 39 40 41 45 47 50
44 44 45 46 46 43 41 40 38 38 40 38 36 37 36 36 37 40 39 38 40 39 40 42 45 48 49
42 42 43 44 45 43 42 40 38 37 37 39 35 35 35 33 34 35 36 37 39 39 40 42 45 47 47
40 40 40 41 41 43 42 40 38 38 37 39 35 34 34 30 31 32 33 34 36 37 38 40 44 46 45
38 37 38 38 38 39 39 39 39 38 38 38 35 35 34 30 30 31 32 33 34 35 36 39 43 46 45
36 37 37 38 37 36 35 35 35 35 37 37 36 35 34 32 30 30 30 32 33 34 34 37 38 43 43
36 37 37 35 35 35 35 34 33 34 33 34 36 36 34 33 33 30 31 30 32 33 34 36 38 40 41
34 34 34 34 33 34 33 33 32 33 32 31 33 34 34 33 31 31 30 30 32 32 33 34 35 38 39
33 33 33 33 33 33 32 32 31 32 32 29 29 29 30 31 33 31 31 30 31 32 32 32 33 34 37
31 31 32 33 33 32 32 31 31 31 31 29 29 29 27 26 30 33 30 30 30 30 31 30 31 32 36
Wind_Speed
9 7 11 16 16 15 14 17 16 23 24 23 21 22 22 20 17 15 13 11 11 14 14 16 17 18 21
9 11 15 16 15 15 17 14 13 15 21 25 22 23 23 20 18 16 14 13 12 12 15 16 16 17 20
14 11 14 8 14 13 14 12 10 13 18 23 25 25 22 20 19 18 16 14 13 13 15 16 16 17 20
17 13 12 8 9 13 16 10 15 11 17 19 19 22 21 19 16 16 15 13 13 13 15 15 16 17 18
14 11 11 9 11 7 12 10 7 10 9 8 9 9 11 14 13 17 15 14 12 14 14 14 16 17 16
3 5 4 5 6 10 9 6 6 4 6 10 9 12 10 10 11 14 14 13 12 13 12 15 16 15 14
4 4 5 3 4 6 8 7 7 5 8 9 8 13 9 8 12 12 12 12 14 11 12 15 16 14 11
3 6 9 10 8 6 6 4 3 5 7 6 5 8 3 4 10 12 12 12 13 11 12 15 13 13 5
4 7 8 11 9 6 7 6 8 7 10 4 4 5 3 6 7 10 12 12 9 11 14 16 13 12 5
10 10 8 8 8 11 8 14 8 4 10 14 9 6 4 4 8 8 7 9 9 11 12 16 16 7 7
9 10 10 10 9 8 8 11 10 8 2 10 7 7 3 2 2 8 8 6 7 7 12 15 12 8 13
9 11 13 14 14 11 10 10 9 10 5 11 5 11 10 7 6 6 7 7 7 11 9 8 8 9 17
13 12 10 11 10 5 5 4 5 5 7 12 11 10 9 6 6 6 6 7 8 9 6 3 2 6 12
10 11 10 6 10 9 10 9 7 7 3 5 10 12 10 8 8 8 9 6 8 10 7 2 0 2 6
12 12 12 11 11 9 11 10 12 9 9 5 2 4 6 11 8 10 12 7 9 7 4 4 2 2 6
11 12 13 12 12 11 11 12 14 13 12 9 8 5 2 3 5 11 9 9 8 10 3 5 4 0 5
12 12 13 13 14 13 11 12 14 14 13 11 13 11 12 12 6 8 12 9 12 10 7 4 5 6 6
Wind_Direction
221 204 234 240 244 236 228 228 236 239 239 237 228 228 220 211 217 221 228 241 262 274 283 289 295 300 300
227 214 216 227 236 237 238 236 237 249 240 240 236 233 220 213 214 220 224 236 253 265 275 286 295 297 299
249 240 223 216 231 236 240 244 244 249 250 247 243 231 218 214 214 214 213 226 243 264 273 280 293 297 296
244 229 225 225 226 241 251 240 250 241 244 246 246 232 219 215 216 214 209 223 242 255 269 282 290 295 296
236 235 228 219 223 228 243 269 268 235 243 240 230 224 215 216 218 206 216 229 243 261 273 287 295 299 299
258 256 273 235 243 255 249 261 291 221 222 240 210 228 220 210 204 205 220 235 246 258 279 291 294 301 297
273 280 282 256 246 263 244 236 243 243 206 268 205 232 212 216 219 221 226 235 250 264 277 286 293 295 293
253 279 280 287 261 264 261 232 227 240 189 243 215 226 186 195 208 207 225 238 259 263 272 276 285 285 245
289 286 290 287 250 193 226 216 249 232 187 192 218 206 202 223 223 220 229 238 251 280 289 290 288 258 194
335 330 316 303 282 221 214 225 216 243 210 191 180 165 218 226 206 217 229 245 250 269 293 298 287 207 131
312 315 314 308 286 247 234 227 229 248 232 186 183 180 179 169 209 196 211 231 236 261 264 283 289 210 136
316 310 313 311 301 277 252 236 216 229 209 185 214 195 186 178 193 188 198 212 232 244 251 286 287 207 156
325 312 300 289 291 267 254 241 218 208 204 190 199 195 202 194 180 182 164 221 228 246 253 260 242 162 146
309 299 298 294 283 262 267 253 250 247 227 222 203 185 198 199 167 183 182 181 211 237 253 238 80 148 154
325 315 308 295 285 270 258 251 240 244 234 208 165 168 182 173 187 193 181 180 192 198 231 216 174 160 162
319 309 301 294 284 268 243 245 252 249 234 198 175 159 158 248 189 181 173 173 178 180 207 210 188 146 150
306 304 297 290 286 279 265 253 253 249 235 192 187 193 193 209 170 197 176 172 165 174 189 208 197 190 157